This demonstration page uses our WeatherBlox Daily Observations layout. Learn more.

39.29038, -76.61219

Hourly Observations for October 16, 2015

Temp ( °F °C ) Dew Point ( °F °C ) Humidity (%) Winds ( mph kmh ) Pressure ( in mb ) Visibility ( mi km ) Precip ( " mm )
12:54 am 00:54 undefined 54 12.2 44 6.7 69 69 undefined N/A 29.98 1015 N/A 0 0
1:54 am 01:54 undefined 55 12.8 45 7.2 69 69 undefined N/A 29.98 1015 N/A 0 0
2:54 am 02:54 undefined 55 12.8 45 7.2 69 69 undefined N/A 29.96 1015 N/A 0 0
3:54 am 03:54 undefined 53 11.7 45 7.2 74 74 undefined N/A 29.95 1014 N/A 0 0
4:54 am 04:54 undefined 53 11.7 45 7.2 74 74 undefined N/A 29.96 1014 N/A 0 0
5:54 am 05:54 undefined 54 12.2 43 6.1 67 67 undefined N/A 29.99 1016 N/A 0 0
6:54 am 06:54 undefined 55 12.8 41 5 59 59 undefined N/A 30.01 1016 N/A 0 0
7:54 am 07:54 undefined 54 12.2 42 5.6 64 64 undefined N/A 30.02 1017 N/A 0 0
8:54 am 08:54 undefined 56 13.3 42 5.6 60 60 undefined N/A 30.05 1018 N/A 0 0
9:54 am 09:54 undefined 58 14.4 40 4.4 51 51 undefined N/A 30.06 1018 N/A 0 0
10:54 am 10:54 undefined 60 15.6 39 3.9 46 46 undefined N/A 30.05 1018 N/A 0 0
11:54 am 11:54 undefined 62 16.7 38 3.3 41 41 undefined N/A 30.05 1018 N/A 0 0
12:54 pm 12:54 undefined 63 17.2 36 2.2 37 37 undefined N/A 30.05 1018 N/A 0 0
1:54 pm 13:54 undefined 63 17.2 38 3.3 40 40 undefined N/A 30.04 1017 N/A 0 0
2:54 pm 14:54 undefined 63 17.2 36 2.2 37 37 undefined N/A 30.05 1018 N/A 0 0
3:54 pm 15:54 undefined 64 17.8 34 1.1 33 33 undefined N/A 30.05 1018 N/A 0 0
4:54 pm 16:54 undefined 63 17.2 32 0 31 31 undefined N/A 30.05 1018 N/A 0 0
5:54 pm 17:54 undefined 63 17.2 33 0.6 33 33 undefined N/A 30.06 1018 N/A 0 0
6:54 pm 18:54 undefined 62 16.7 32 0 32 32 undefined N/A 30.07 1018 N/A 0 0
7:54 pm 19:54 undefined 60 15.6 34 1.1 38 38 undefined N/A 30.1 1019 N/A 0 0
8:54 pm 20:54 undefined 58 14.4 33 0.6 39 39 undefined N/A 30.1 1019 N/A 0 0
9:54 pm 21:54 undefined 56 13.3 34 1.1 44 44 undefined N/A 30.11 1020 N/A 0 0
10:54 pm 22:54 undefined 56 13.3 33 0.6 42 42 undefined N/A 30.12 1020 N/A 0 0
11:54 pm 23:54 undefined 53 11.7 35 1.7 51 51 undefined N/A 30.12 1020 N/A 0 0

Powered by AerisWeather